GW0268 Weather Reports


Display with metric or nautical units.
time (UTC)temp
F
wind
direction
speed
MPH
gust
MPH
rain 1hr
in
rain 24hr
in
rain mn
in
humidity
%
barometer
mb
20260509101726 49 172 6.0 10.0 0.00 0.10 0.00 49 991.1
20260509100824 48 189 6.0 9.0 0.00 0.10 0.00 48 991.1
20260509095923 48 186 3.0 8.0 0.00 0.10 0.00 49 991.1
20260509093926 48 183 2.0 5.0 0.00 0.10 0.00 48 991.1
20260509092926 48 199 3.0 6.0 0.00 0.10 0.00 48 991.1
20260509092025 47 201 2.0 7.0 0.00 0.10 0.00 49 991.1
20260509090124 47 202 1.0 2.0 0.00 0.10 0.00 49 991.1
20260509085126 46 207 2.0 6.0 0.00 0.10 0.00 48 991.1
20260509084125 46 202 3.0 4.0 0.00 0.10 0.00 48 991.1
20260509082225 46 202 3.0 5.0 0.00 0.10 0.00 42 991.5
20260509081225 46 201 3.0 5.0 0.00 0.10 0.00 42 991.5
20260509075226 46 193 4.0 6.0 0.00 0.10 0.00 42 991.5
20260509074226 45 202 2.0 4.0 0.00 0.10 0.00 42 991.5
20260509073224 45 202 1.0 2.0 0.00 0.10 0.00 42 991.9
20260509072225 45 202 1.0 2.0 0.00 0.10 0.00 42 991.9
20260509071324 45 180 1.0 2.0 0.00 0.10 0.00 47 991.5
20260509070325 45 180 1.0 2.0 0.00 0.10 0.00 48 992.2
20260509065423 44 171 2.0 4.0 0.00 0.10 0.00 48 991.9
20260509064426 43 202 1.0 2.0 0.00 0.10 0.00 49 991.9
20260509063426 43 202 1.0 2.0 0.00 0.10 0.00 48 992.2
20260509062426 42 180 0.0 0.0 0.00 0.10 0.00 49 992.2
20260509061523 42 180 0.0 0.0 0.00 0.10 0.00 49 992.2
20260509060525 42 112 0.0 0.0 0.00 0.10 0.00 50 992.6
20260509055525 42 112 0.0 0.0 0.00 0.10 0.00 51 992.6
20260509053624 42 112 0.0 0.0 0.00 0.10 0.00 50 992.8
20260509052627 41 112 0.0 0.0 0.00 0.10 0.00 49 992.9
20260509051625 41 112 0.0 0.0 0.00 0.10 0.00 49 992.8
20260509045625 40 112 0.0 0.0 0.00 0.10 0.00 49 992.9
20260509044626 39 112 0.0 0.0 0.00 0.10 0.00 50 992.9
20260509043724 39 112 0.0 0.0 0.00 0.10 0.00 42 992.9
20260509042725 39 112 0.0 0.0 0.00 0.10 0.00 43 992.9
20260509041824 39 112 0.0 0.0 0.00 0.10 0.00 51 992.9
20260509040825 39 112 0.0 0.0 0.00 0.10 0.00 50 992.9
20260509035014 39 247 0.0 2.0 0.00 0.10 0.10 51 993.2
20260509034113 39 247 1.0 2.0 0.00 0.10 0.10 48 993.2
20260509033114 39 247 1.0 2.0 0.00 0.10 0.10 48 993.2
20260509031214 40 247 1.0 2.0 0.00 0.10 0.10 43 993.2
20260509025316 40 247 0.0 0.0 0.00 0.10 0.10 51 993.2
20260509024317 41 247 0.0 0.0 0.00 0.10 0.10 52 993.6
20260509023414 41 247 0.0 0.0 0.00 0.10 0.10 51 993.6
20260509022414 42 247 0.0 0.0 0.00 0.10 0.10 52 993.9
20260509020516 42 247 0.0 0.0 0.00 0.10 0.10 51 993.9
20260509014615 43 247 1.0 2.0 0.00 0.10 0.10 48 993.9
20260509013617 43 247 0.0 1.0 0.00 0.10 0.10 48 993.9
20260509011615 43 247 1.0 2.0 0.00 0.10 0.10 48 993.6
20260509010617 44 247 1.0 2.0 0.00 0.10 0.10 48 993.6
20260509003615 46 247 1.0 2.0 0.00 0.10 0.10 47 993.2
20260509002615 46 247 0.0 1.0 0.00 0.10 0.10 47 993.6
20260509001615 48 247 1.0 2.0 0.00 0.10 0.10 44 993.6
20260508235618 51 112 0.0 0.0 0.00 0.10 0.10 42 993.6
20260508234716 52 112 1.0 2.0 0.00 0.10 0.10 43 993.6
20260508232714 54 80 1.0 2.0 0.00 0.10 0.10 43 993.6
20260508231718 56 67 1.0 2.0 0.00 0.10 0.10 44 993.2
20260508230815 57 22 0.0 0.0 0.00 0.10 0.10 53 993.2
20260508225817 56 33 0.0 0.0 0.00 0.10 0.10 50 993.2
20260508224913 55 22 0.0 0.0 0.00 0.10 0.10 46 993.2
20260508222914 55 22 0.0 0.0 0.00 0.10 0.10 47 993.6
20260508221915 55 22 0.0 0.0 0.00 0.10 0.10 45 993.2
20260508221015 55 45 0.0 0.0 0.00 0.10 0.10 45 993.2
20260508220017 55 51 1.0 4.0 0.00 0.10 0.10 45 993.2
20260508215016 55 67 1.0 2.0 0.00 0.10 0.10 45 993.2
20260508214115 55 68 1.0 4.0 0.00 0.10 0.10 43 993.6
20260508213215 55 38 1.0 6.0 0.00 0.10 0.10 44 993.6
20260508212214 54 53 2.0 4.0 0.00 0.10 0.10 44 993.6
20260508205216 54 16 0.0 0.0 0.00 0.10 0.10 43 993.9
20260508204216 54 45 1.0 4.0 0.00 0.10 0.10 44 993.9
20260508203314 54 17 0.0 0.0 0.00 0.10 0.10 54 993.9
20260508202316 55 32 0.0 6.0 0.00 0.10 0.10 54 993.9
20260508201316 56 40 0.0 3.0 0.00 0.10 0.10 54 994.3
20260508200316 55 81 2.0 6.0 0.00 0.10 0.10 55 994.3
20260508195315 54 36 0.0 2.0 0.00 0.10 0.10 54 994.3
20260508194315 55 42 1.0 7.0 0.00 0.10 0.10 54 994.3
20260508193315 54 74 2.0 6.0 0.00 0.10 0.10 53 994.6
20260508192315 54 87 2.0 5.0 0.00 0.10 0.10 54 994.6
20260508191316 53 92 4.0 6.0 0.00 0.10 0.10 53 994.6
20260508190315 52 96 4.0 7.0 0.00 0.10 0.10 53 994.6
20260508185313 52 106 3.0 6.0 0.00 0.10 0.10 54 994.6
20260508184314 54 77 2.0 4.0 0.00 0.10 0.10 54 994.6
20260508182315 53 250 2.0 4.0 0.00 0.10 0.10 53 994.9
20260508181413 52 91 3.0 6.0 0.00 0.10 0.10 54 994.9
20260508180414 52 7 1.0 5.0 0.00 0.10 0.10 53 994.9
20260508175416 52 284 0.0 2.0 0.00 0.10 0.10 54 995.3
20260508174416 50 225 1.0 3.0 0.00 0.10 0.10 54 995.3
20260508172414 48 85 4.0 6.0 0.00 0.10 0.10 52 995.3
20260508171414 47 157 2.0 5.0 0.00 0.10 0.10 53 995.3
20260508165418 47 122 4.0 7.0 0.00 0.10 0.10 52 995.3
20260508164414 46 101 4.0 6.0 0.00 0.10 0.10 53 995.7
20260508163416 46 114 2.0 4.0 0.00 0.10 0.10 52 996.0
20260508161516 47 112 1.0 3.0 0.00 0.10 0.10 53 995.7
20260508160517 47 180 1.0 3.0 0.00 0.10 0.10 52 995.7
20260508155516 45 90 1.0 2.0 0.00 0.10 0.10 53 995.3
20260508154515 44 143 3.0 6.0 0.00 0.10 0.10 51 995.3
20260508153516 44 175 2.0 5.0 0.00 0.10 0.10 52 995.7
20260508152516 44 151 2.0 3.0 0.00 0.10 0.10 52 995.3
20260508151515 43 202 1.0 4.0 0.00 0.10 0.10 52 995.3
20260508150515 44 115 2.0 4.0 0.00 0.10 0.10 52 995.3
20260508145515 44 241 0.0 0.0 0.01 0.10 0.10 52 995.3
20260508144614 44 341 0.0 4.0 0.02 0.10 0.10 52 995.3
20260508143617 43 344 0.0 2.0 0.02 0.10 0.10 42 995.3
20260508142616 42 157 2.0 4.0 0.03 0.10 0.10 42 994.9
20260508141713 41 157 1.0 2.0 0.04 0.10 0.10 50 994.9
20260508135716 39 247 1.0 2.0 0.05 0.09 0.09 50 995.3
20260508134715 39 247 3.0 5.0 0.05 0.08 0.08 50 994.9
20260508133814 39 247 2.0 4.0 0.06 0.08 0.08 51 994.9
20260508132816 39 247 1.0 2.0 0.05 0.07 0.07 52 994.9
20260508131815 38 247 3.0 6.0 0.06 0.06 0.06 52 994.9
20260508130814 38 247 4.0 6.0 0.06 0.06 0.05 51 994.9
20260508125816 38 247 6.0 10.0 0.04 0.04 0.04 51 994.9
20260508124815 39 254 3.0 7.0 0.04 0.04 0.03 51 994.6
20260508122813 40 292 0.0 2.0 0.02 0.02 0.01 51 994.6
20260508121815 41 312 1.0 7.0 0.00 0.00 0.00 52 994.3
20260508120815 41 284 1.0 4.0 0.00 0.00 0.00 52 993.9
20260508115815 41 225 1.0 2.0 0.00 0.00 0.00 52 993.2
20260508114815 41 202 1.0 3.0 0.00 0.00 0.00 52 992.9
20260508113815 41 202 1.0 3.0 0.00 0.00 0.00 51 993.2
20260508112815 41 157 1.0 2.0 0.00 0.00 0.00 51 993.2
20260508111817 40 157 1.0 2.0 0.00 0.00 0.00 51 993.2
20260508110815 40 157 0.0 0.0 0.00 0.00 0.00 51 993.2
20260508105814 40 157 0.0 0.0 0.00 0.00 0.00 51 993.2
20260508103813 40 157 0.0 2.0 0.00 0.00 0.00 52 993.2
20260508102816 40 157 2.0 2.0 0.00 0.00 0.00 52 993.2